ONEWEB-0117 (47263 NORAD) Tracking and Keplerian Element Data

This shows tracking and keplerian element data for the satellite.

Feedback or suggestion? Click here.




ElementValue
Catalog47263
NameONEWEB-0117
Epoch Orbit1070
Epoch Day60.16668981
Epoch Year2021
RAAN16.1201
Inclination87.4958
Eccentricity0.0011824
Argument of Perigee43.3205
Mean Anonmoly297.1467
Mean Motion13.85485647
Decay Rate1.6E-07
L11 47263U 20100F 21060.16668981 .00000016 00000-0 00000+0 0 9995
L22 47263 87.4958 16.1201 0011824 43.3205 297.1467 13.85485647 10704

Live tracking and technical data element details for ONEWEB-0117 (NORAD 47263). ONEWEB-0117 can be tracked NOW for your location showing map with azimuth and elevation plus other details from your city location.

Track the satellite on the map from your city or location and see movement details for azimuth, elevation, latitude, longitude, range, height, and movement on the map or in text.







IsCatalogInMostPopularTable: catalog: 47263, numindb: 22
Update: records affected: 1



GetName: 47263 ONEWEB-0117

Hit Count: updated at: Mon, 01 Mar 2021 23:08:32 GMT